Flag Weather past 2 weeks in Villavicencio, Colombia

Now
54 °F

Passing clouds.


Feels Like: 54 °F
Forecast: 66 / 90 °F
Wind: 2 mph from North

Location: Bogota / Eldorado

Current Time: Oct 31, 2014 at 2:09:17 AM

Latest Report: Oct 31, 2014 at 1:00 AM


Visibility: N/A

Pressure: 30.28 "Hg

Humidity: 94%

Dew point: 52 °F

Location of VillavicencioLocation

Historic Weather in Villavicencio — Graph

°F

Villavicencio temperature yesterday

Maximum temperature yesterday: 66 °F (at 12:00 PM)
Minimum temperature yesterday: 45 °F (at 5:00 AM)
Average temperature yesterday: 56 °F

Past Weeks' High & Low Weather Summary

 TemperatureHumidityPressure
High68 °F (Oct 16, 11:00 AM)100% (Oct 17, 3:00 AM)30.43 "Hg (Oct 17, 3:00 AM)
Low39 °F (Oct 28, 6:00 AM)46% (Oct 16, 10:00 AM)30.18 "Hg (Oct 30, 3:00 PM)
Average56 °F81%30.32 "Hg
* Reported Oct 16 1:00 AM — Oct 31 1:00 AM, Villavicencio, Weather by CustomWeather, © 2014

Note: Actual official high and low records may vary slightly from our data, if they occured in-between our weather recording intervals... More about our weather records

Advertising

Villavicencio weather history for previous 24 hours

 ConditionsComfort  
Time TempWeatherWind HumidityBarometerVisibility
1:00 AM
Oct 31
54 °FPassing clouds.2 mph94%30.28 "HgN/A
12:00 AM54 °FPassing clouds.2 mph94%30.30 "HgN/A
11:00 PM
Oct 30
54 °FScattered showers. Partly cloudy.2 mph94%30.31 "HgN/A
10:00 PM55 °FPartly cloudy.2 mph88%30.31 "HgN/A
9:00 PM55 °FPartly cloudy.2 mph88%30.29 "HgN/A
8:00 PM57 °FPartly cloudy.2 mph88%30.27 "HgN/A
7:00 PM57 °FScattered showers. Partly cloudy.5 mph88%30.23 "HgN/A
6:00 PM59 °FScattered showers. Partly cloudy.5 mph82%30.21 "HgN/A
5:00 PM63 °FBroken clouds.5 mph77%30.18 "Hg4 mi
4:00 PM63 °FThunderstorms. Broken clouds.7 mph73%30.18 "Hg5 mi
3:00 PM63 °FScattered showers. Broken clouds.12 mph73%30.18 "Hg6 mi
2:00 PM66 °FScattered showers. Partly sunny.9 mph52%30.19 "HgN/A
1:00 PM66 °FScattered clouds.9 mph52%30.22 "HgN/A
12:00 PM66 °FPartly sunny.8 mph52%30.27 "HgN/A
11:00 AM64 °FPartly sunny.7 mph60%30.30 "HgN/A
10:00 AM63 °FScattered clouds.6 mph59%30.32 "HgN/A
9:00 AM57 °FScattered clouds.6 mph94%30.32 "Hg5 mi
8:00 AM52 °FScattered clouds.7 mph94%30.32 "Hg1 mi
7:00 AM50 °FCool.5 mph100%30.29 "Hg1 mi
6:00 AM46 °FFog.No wind100%30.24 "Hg0 mi
5:00 AM45 °FQuite cool.2 mph100%30.22 "HgN/A
4:00 AM46 °FPassing clouds.3 mph100%30.23 "HgN/A
3:00 AM50 °FPassing clouds.3 mph94%30.24 "HgN/A
2:00 AM52 °FPassing clouds.3 mph94%30.25 "HgN/A
Weather by CustomWeather, © 2014

See weather overviewHow to use our weather pages